Date heure;µg/m3
2018-03-20 15:00:00;9.0
2018-03-20 16:00:00;8.851851851851851
2018-03-20 17:00:00;7.222222222222222
2018-03-20 18:00:00;8.982142857142858
2018-03-20 19:00:00;9.018518518518519
2018-03-20 20:00:00;9.309090909090909
2018-03-20 21:00:00;8.763636363636364
2018-03-20 22:00:00;9.090909090909092
2018-03-20 23:00:00;10.0
2018-11-08 11:00:00;17.0
2018-11-09 11:00:00;14.352941176470589
2018-11-09 12:00:00;14.666666666666666
2018-11-12 15:00:00;2.642857142857143
2018-11-12 16:00:00;2.2181818181818183
2018-11-12 17:00:00;2.4782608695652173
2018-11-14 10:00:00;15.666666666666666
2018-11-15 16:00:00;31.22222222222222
2018-11-15 17:00:00;26.88888888888889
2018-11-15 18:00:00;35.2
2018-11-19 15:00:00;15.64102564102564
2018-11-19 16:00:00;14.796296296296296
2018-11-19 17:00:00;14.283018867924529
2018-11-19 18:00:00;12.39622641509434
2018-11-19 19:00:00;13.679245283018869
2018-11-19 20:00:00;8.09433962264151
2018-11-19 21:00:00;10.351851851851851
2018-11-19 22:00:00;10.351851851851851
2018-11-19 23:00:00;11.203703703703704
2018-11-20 00:00:00;12.672727272727272
2018-11-20 01:00:00;13.481481481481481
2018-11-20 02:00:00;12.636363636363637
2018-11-20 03:00:00;14.925925925925926
2018-11-20 04:00:00;16.6
2018-11-20 05:00:00;19.0
2018-11-20 06:00:00;23.272727272727273
2018-11-20 07:00:00;23.24074074074074
2018-11-20 08:00:00;24.818181818181817
2018-11-20 09:00:00;31.0
2018-11-20 10:00:00;31.87878787878788
2018-11-20 11:00:00;34.388888888888886
2018-11-20 12:00:00;35.44444444444444
2018-11-20 13:00:00;38.236363636363635
2018-11-20 14:00:00;40.166666666666664
2018-11-20 15:00:00;42.074074074074076
2018-11-20 16:00:00;44.55555555555556
2018-11-20 17:00:00;46.55555555555556
2018-11-20 18:00:00;45.8
2018-11-20 19:00:00;49.24074074074074
2018-11-20 20:00:00;51.7962962962963
2018-11-20 21:00:00;52.054545454545455
2018-11-20 22:00:00;52.945454545454545
2018-11-20 23:00:00;49.370370370370374
2018-11-21 00:00:00;50.58181818181818
2018-11-21 01:00:00;48.872727272727275
2018-11-21 02:00:00;53.388888888888886
2018-11-21 03:00:00;54.70909090909091
2018-11-21 04:00:00;46.25454545454546
2018-11-21 05:00:00;48.45454545454545
2018-11-21 06:00:00;42.925925925925924
2018-11-21 07:00:00;49.163636363636364
2018-11-21 08:00:00;47.81818181818182
2018-11-21 09:00:00;52.166666666666664
2018-11-21 10:00:00;64.14814814814815
2018-11-21 11:00:00;64.77777777777777
2018-11-21 12:00:00;51.648148148148145
2018-11-21 13:00:00;54.61818181818182
2018-11-21 14:00:00;46.7962962962963
2018-11-21 15:00:00;33.75925925925926
2018-11-21 16:00:00;37.18518518518518
2018-11-21 17:00:00;42.09090909090909
2018-11-21 18:00:00;41.5
2018-11-21 19:00:00;48.85454545454545
2018-11-21 20:00:00;50.5
2018-11-21 21:00:00;50.78181818181818
2018-11-21 22:00:00;56.0
2018-11-21 23:00:00;62.8
2018-11-22 00:00:00;66.64814814814815
2018-11-22 01:00:00;61.763636363636365
2018-11-22 02:00:00;65.27272727272727
2018-11-22 03:00:00;59.074074074074076
2018-11-22 04:00:00;55.763636363636365
2018-11-22 05:00:00;55.50909090909091
2018-11-22 06:00:00;59.925925925925924
2018-11-22 07:00:00;78.98181818181818
2018-11-22 08:00:00;69.54
2018-11-22 09:00:00;56.472727272727276
2018-11-22 10:00:00;45.611111111111114
2018-11-22 11:00:00;41.425925925925924
2018-11-22 12:00:00;43.981818181818184
2018-11-22 13:00:00;58.2962962962963
2018-11-22 14:00:00;67.79629629629629
2018-11-22 15:00:00;32.370370370370374
2018-11-22 16:00:00;29.11111111111111
2018-11-22 17:00:00;44.945454545454545
2018-11-22 18:00:00;49.68518518518518
2018-11-22 19:00:00;45.833333333333336
2018-11-22 20:00:00;50.25454545454546
2018-11-22 21:00:00;52.0
2018-11-22 22:00:00;42.888888888888886
2018-11-22 23:00:00;44.07272727272727
2018-11-23 00:00:00;50.2962962962963
2018-11-23 01:00:00;48.21818181818182
2018-11-23 02:00:00;35.870370370370374
2018-11-23 03:00:00;25.8
2018-11-23 04:00:00;22.70909090909091
2018-11-23 05:00:00;28.818181818181817
2018-11-23 06:00:00;36.72222222222222
2018-11-23 07:00:00;38.27272727272727
2018-11-23 08:00:00;47.94444444444444
2018-11-23 09:00:00;45.25454545454546
2018-11-23 10:00:00;46.05555555555556
2018-11-23 11:00:00;69.46296296296296
2018-11-23 12:00:00;71.98181818181818
2018-11-23 13:00:00;70.64814814814815
2018-11-23 14:00:00;78.44444444444444
2018-11-23 15:00:00;70.27777777777777
2018-11-23 16:00:00;65.74545454545455
2018-11-23 17:00:00;48.0
2018-11-23 18:00:00;56.51851851851852
2018-11-23 19:00:00;61.45454545454545
2018-11-23 20:00:00;67.62962962962963
2018-11-23 21:00:00;59.6
2018-11-23 22:00:00;45.29090909090909
2018-11-23 23:00:00;44.77777777777778
2018-11-24 00:00:00;41.41818181818182
2018-11-24 01:00:00;42.166666666666664
2018-11-24 02:00:00;18.272727272727273
2018-11-24 03:00:00;14.254545454545454
2018-11-24 04:00:00;12.745454545454546
2018-11-24 05:00:00;17.40740740740741
2018-11-24 06:00:00;21.545454545454547
2018-11-24 07:00:00;19.90909090909091
2018-11-24 08:00:00;7.87037037037037
2018-11-24 09:00:00;5.703703703703703
2018-11-24 10:00:00;5.490909090909091
2018-11-24 11:00:00;6.462962962962963
2018-11-24 12:00:00;5.8
2018-11-24 13:00:00;5.890909090909091
2018-11-24 14:00:00;5.462962962962963
2018-11-24 15:00:00;6.163636363636364
2018-11-24 16:00:00;5.818181818181818
2018-11-24 17:00:00;6.685185185185185
2018-11-24 18:00:00;8.8
2018-11-24 19:00:00;10.381818181818181
2018-11-24 20:00:00;13.018518518518519
2018-11-24 21:00:00;16.054545454545455
2018-11-24 22:00:00;16.555555555555557
2018-11-24 23:00:00;17.545454545454547
2018-11-25 00:00:00;18.163636363636364
2018-11-25 01:00:00;17.90740740740741
2018-11-25 02:00:00;16.90909090909091
2018-11-25 03:00:00;21.21818181818182
2018-11-25 04:00:00;21.745454545454546
2018-11-25 05:00:00;20.37037037037037
2018-11-25 06:00:00;17.2
2018-11-25 07:00:00;16.21818181818182
2018-11-25 08:00:00;12.574074074074074
2018-11-25 09:00:00;11.25925925925926
2018-11-25 10:00:00;12.49090909090909
2018-11-25 11:00:00;9.222222222222221
2018-11-25 12:00:00;9.89090909090909
2018-11-25 13:00:00;8.654545454545454
2018-11-25 14:00:00;7.907407407407407
2018-11-25 15:00:00;7.7272727272727275
2018-11-25 16:00:00;8.781818181818181
2018-11-25 17:00:00;11.037037037037036
2018-11-25 18:00:00;9.781818181818181
2018-11-25 19:00:00;9.163636363636364
2018-11-25 20:00:00;8.796296296296296
2018-11-25 21:00:00;11.145454545454545
2018-11-25 22:00:00;25.98181818181818
2018-11-25 23:00:00;45.629629629629626
2018-11-26 00:00:00;54.836363636363636
2018-11-26 01:00:00;53.38181818181818
2018-11-26 02:00:00;55.129629629629626
2018-11-26 03:00:00;51.63636363636363
2018-11-26 04:00:00;62.85454545454545
2018-11-26 05:00:00;69.50909090909092
2018-11-26 06:00:00;69.07407407407408
2018-11-26 07:00:00;68.61818181818182
2018-11-26 08:00:00;67.45454545454545
2018-11-26 09:00:00;56.74074074074074
2018-11-26 10:00:00;51.351851851851855
2018-11-26 11:00:00;41.63636363636363
2018-11-26 12:00:00;36.81481481481482
2018-11-26 13:00:00;40.76923076923077
2018-11-26 14:00:00;41.18181818181818
2018-11-26 15:00:00;40.888888888888886
2018-11-26 16:00:00;46.25925925925926
2018-11-26 17:00:00;54.56363636363636
2018-11-26 18:00:00;47.870370370370374
2018-11-26 19:00:00;46.166666666666664
2018-11-26 20:00:00;56.872727272727275
2018-11-26 21:00:00;64.88888888888889
2018-11-26 22:00:00;62.763636363636365
2018-11-26 23:00:00;61.87234042553192
2018-11-27 00:00:00;59.96363636363636
2018-11-27 01:00:00;53.68518518518518
2018-11-27 02:00:00;58.0
2018-11-27 03:00:00;56.56363636363636
2018-11-27 04:00:00;52.78181818181818
2018-11-27 05:00:00;52.592592592592595
2018-11-27 06:00:00;49.58181818181818
2018-11-27 07:00:00;45.53703703703704
2018-11-27 08:00:00;46.345454545454544
2018-11-27 09:00:00;40.833333333333336
2018-11-27 10:00:00;38.14545454545455
2018-11-27 11:00:00;35.648148148148145
2018-11-27 12:00:00;31.925925925925927
2018-11-27 13:00:00;23.462962962962962
2018-11-27 14:00:00;18.59259259259259
2018-11-27 15:00:00;16.61111111111111
2018-11-27 16:00:00;22.30909090909091
2018-11-27 17:00:00;26.264150943396228
2018-11-27 18:00:00;29.88888888888889
2018-11-27 19:00:00;26.545454545454547
2018-11-27 20:00:00;23.703703703703702
2018-11-27 21:00:00;21.345454545454544
2018-11-27 22:00:00;18.833333333333332
2018-11-27 23:00:00;17.454545454545453
2018-11-28 00:00:00;13.836363636363636
2018-11-28 01:00:00;8.944444444444445
2018-11-28 02:00:00;6.454545454545454
2018-11-28 03:00:00;5.345454545454546
2018-11-28 04:00:00;4.218181818181818
2018-11-28 05:00:00;3.4074074074074074
2018-11-28 06:00:00;3.0545454545454547
2018-11-28 07:00:00;4.111111111111111
2018-11-28 08:00:00;3.7818181818181817
2018-11-28 09:00:00;3.1272727272727274
2018-11-28 10:00:00;3.6296296296296298
2018-11-28 11:00:00;4.3090909090909095
2018-11-28 12:00:00;5.407407407407407
2018-11-28 13:00:00;7.545454545454546
2018-11-28 14:00:00;7.962962962962963
2018-11-28 15:00:00;8.036363636363637
2018-11-28 16:00:00;8.11111111111111
2018-11-28 17:00:00;7.777777777777778
2018-11-28 18:00:00;7.3090909090909095
2018-11-28 19:00:00;7.7592592592592595
2018-11-28 20:00:00;8.672727272727272
2018-11-28 21:00:00;8.6
2018-11-28 22:00:00;7.62962962962963
2018-11-28 23:00:00;7.4363636363636365
2018-11-29 00:00:00;7.745454545454545
2018-11-29 01:00:00;7.685185185185185
2018-11-29 02:00:00;8.2
2018-11-29 03:00:00;7.472727272727273
2018-11-29 04:00:00;7.555555555555555
2018-11-29 05:00:00;7.909090909090909
2018-11-29 06:00:00;7.709090909090909
2018-11-29 07:00:00;7.7407407407407405
2018-11-29 08:00:00;8.345454545454546
2018-11-29 09:00:00;9.222222222222221
2018-11-29 10:00:00;8.592592592592593
2018-11-29 11:00:00;7.481481481481482
2018-11-29 12:00:00;5.537037037037037
2018-11-29 13:00:00;5.314814814814815
2018-11-29 14:00:00;5.2407407407407405
2018-11-29 15:00:00;5.709090909090909
2018-11-29 16:00:00;6.2407407407407405
2018-11-29 17:00:00;6.277777777777778
2018-11-29 18:00:00;7.0
2018-11-29 19:00:00;8.313725490196079
2018-11-29 20:00:00;8.218181818181819
2018-11-29 21:00:00;8.166666666666666
2018-11-29 22:00:00;9.4
2018-11-29 23:00:00;9.436363636363636
2018-11-30 00:00:00;9.555555555555555
2018-11-30 01:00:00;10.527272727272727
2018-11-30 02:00:00;9.872727272727273
2018-11-30 03:00:00;10.163636363636364
2018-11-30 04:00:00;11.11111111111111
2018-11-30 05:00:00;11.127272727272727
2018-11-30 06:00:00;11.418181818181818
2018-11-30 07:00:00;11.333333333333334
2018-11-30 08:00:00;11.4
2018-11-30 09:00:00;12.290909090909091
2018-11-30 10:00:00;12.407407407407407
2018-11-30 11:00:00;13.418181818181818
2018-11-30 12:00:00;12.777777777777779
2018-11-30 13:00:00;10.945454545454545
2018-11-30 14:00:00;10.145454545454545
2018-11-30 15:00:00;10.11111111111111
2018-11-30 16:00:00;10.072727272727272
2018-11-30 17:00:00;11.436363636363636
2018-11-30 18:00:00;12.518518518518519
2018-11-30 19:00:00;12.636363636363637
2018-11-30 20:00:00;12.87037037037037
2018-11-30 21:00:00;13.290909090909091
2018-11-30 22:00:00;12.24074074074074
2018-11-30 23:00:00;11.254545454545454
2018-12-01 00:00:00;9.518518518518519
2018-12-01 01:00:00;9.654545454545454
2018-12-01 02:00:00;8.296296296296296
2018-12-01 03:00:00;8.836363636363636
2018-12-01 04:00:00;9.327272727272728
2018-12-01 05:00:00;9.796296296296296
2018-12-01 06:00:00;10.054545454545455
2018-12-01 07:00:00;12.527272727272727
2018-12-01 08:00:00;12.166666666666666
2018-12-01 09:00:00;12.254545454545454
2018-12-01 10:00:00;10.872727272727273
2018-12-01 11:00:00;9.092592592592593
2018-12-01 12:00:00;8.345454545454546
2018-12-01 13:00:00;7.618181818181818
2018-12-01 14:00:00;5.222222222222222
2018-12-01 15:00:00;3.672727272727273
2018-12-01 16:00:00;3.0
2018-12-01 17:00:00;2.5
2018-12-01 18:00:00;2.309090909090909
2018-12-01 19:00:00;2.5454545454545454
2018-12-01 20:00:00;2.611111111111111
2018-12-01 21:00:00;2.5636363636363635
2018-12-01 22:00:00;2.0727272727272728
2018-12-01 23:00:00;2.037037037037037
2018-12-02 00:00:00;1.8727272727272728
2018-12-02 01:00:00;1.690909090909091
2018-12-02 02:00:00;1.8888888888888888
2018-12-02 03:00:00;1.290909090909091
2018-12-02 04:00:00;1.2363636363636363
2018-12-02 05:00:00;1.3518518518518519
2018-12-02 06:00:00;1.0909090909090908
2018-12-02 07:00:00;1.0545454545454545
2018-12-02 08:00:00;1.0909090909090908
2018-12-02 09:00:00;1.1666666666666667
2018-12-02 10:00:00;1.2545454545454546
2018-12-02 11:00:00;1.290909090909091
2018-12-02 12:00:00;1.4444444444444444
2018-12-02 13:00:00;1.5454545454545454
2018-12-02 14:00:00;1.6181818181818182
2018-12-02 15:00:00;1.9259259259259258
2018-12-02 16:00:00;2.290909090909091
2018-12-02 17:00:00;2.5090909090909093
2018-12-02 18:00:00;2.462962962962963
2018-12-02 19:00:00;2.4545454545454546
2018-12-02 20:00:00;2.1481481481481484
2018-12-02 21:00:00;2.036363636363636
2018-12-02 22:00:00;2.109090909090909
2018-12-02 23:00:00;1.8703703703703705
2018-12-03 00:00:00;2.5272727272727273
2018-12-03 01:00:00;3.036363636363636
2018-12-03 02:00:00;2.8703703703703702
2018-12-03 03:00:00;2.4
2018-12-03 04:00:00;2.2222222222222223
2018-12-03 05:00:00;3.327272727272727
2018-12-03 06:00:00;4.872727272727273
2018-12-03 07:00:00;4.722222222222222
2018-12-03 08:00:00;3.9454545454545453
2018-12-03 09:00:00;5.722222222222222
2018-12-03 10:00:00;6.357142857142857
2018-12-03 11:00:00;3.5925925925925926
2018-12-03 12:00:00;6.132075471698113
2018-12-03 13:00:00;6.528301886792453
2018-12-03 14:00:00;3.9454545454545453
2018-12-03 15:00:00;2.6666666666666665
2018-12-03 16:00:00;2.7636363636363637
2018-12-03 17:00:00;4.5
2018-12-03 18:00:00;5.074074074074074
2018-12-03 19:00:00;6.127272727272727
2018-12-03 20:00:00;10.127272727272727
2018-12-03 21:00:00;11.74074074074074
2018-12-03 22:00:00;11.290909090909091
2018-12-03 23:00:00;10.11111111111111
2018-12-04 00:00:00;8.472727272727273
2018-12-04 01:00:00;7.927272727272728
2018-12-04 02:00:00;7.777777777777778
2018-12-04 03:00:00;8.036363636363637
2018-12-04 04:00:00;7.285714285714286
2018-12-04 05:00:00;6.888888888888889
2018-12-04 06:00:00;8.203703703703704
2018-12-04 07:00:00;7.418181818181818
2018-12-04 08:00:00;6.2
2018-12-04 09:00:00;6.12962962962963
2018-12-04 10:00:00;6.537037037037037
2018-12-04 11:00:00;5.963636363636364
2018-12-04 12:00:00;6.314814814814815
2018-12-04 13:00:00;5.236363636363636
2018-12-04 14:00:00;4.163636363636364
2018-12-04 15:00:00;5.092592592592593
2018-12-04 16:00:00;4.872727272727273
2018-12-04 17:00:00;5.963636363636364
2018-12-04 18:00:00;6.296296296296297
2018-12-04 19:00:00;7.2
2018-12-04 20:00:00;8.814814814814815
2018-12-04 21:00:00;11.836363636363636
2018-12-04 22:00:00;13.854545454545455
2018-12-04 23:00:00;11.454545454545455
2018-12-05 00:00:00;11.75925925925926
2018-12-05 01:00:00;9.581818181818182
2018-12-05 02:00:00;9.527272727272727
2018-12-05 03:00:00;9.518518518518519
2018-12-05 04:00:00;10.50909090909091
2018-12-05 05:00:00;10.49090909090909
2018-12-05 06:00:00;13.166666666666666
2018-12-05 07:00:00;13.763636363636364
2018-12-05 08:00:00;15.454545454545455
2018-12-05 09:00:00;13.49090909090909
2018-12-05 10:00:00;14.092592592592593
2018-12-05 11:00:00;13.12962962962963
2018-12-05 12:00:00;13.0
2018-12-05 13:00:00;13.796296296296296
2018-12-05 14:00:00;12.927272727272728
2018-12-05 15:00:00;12.185185185185185
2018-12-05 16:00:00;11.307692307692308
2018-12-05 17:00:00;11.333333333333334
2018-12-05 18:00:00;11.222222222222221
2018-12-05 19:00:00;10.61111111111111
2018-12-05 20:00:00;10.218181818181819
2018-12-05 21:00:00;11.254545454545454
2018-12-05 22:00:00;8.0
2018-12-05 23:00:00;7.381818181818182
2018-12-06 00:00:00;10.272727272727273
2018-12-06 01:00:00;9.351851851851851
2018-12-06 02:00:00;8.981818181818182
2018-12-06 03:00:00;7.8545454545454545
2018-12-06 04:00:00;6.648148148148148
2018-12-06 05:00:00;3.9454545454545453
2018-12-06 06:00:00;3.381818181818182
2018-12-06 07:00:00;5.109090909090909
2018-12-06 08:00:00;6.5
2018-12-06 09:00:00;4.481481481481482
2018-12-06 10:00:00;3.4545454545454546
2018-12-06 11:00:00;2.9622641509433962
2018-12-06 12:00:00;3.1320754716981134
2018-12-06 13:00:00;3.037037037037037
2018-12-06 14:00:00;2.7037037037037037
2018-12-06 15:00:00;3.0555555555555554
2018-12-06 16:00:00;2.7454545454545456
2018-12-06 17:00:00;2.6481481481481484
2018-12-06 18:00:00;3.1454545454545455
2018-12-06 19:00:00;3.6296296296296298
2018-12-06 20:00:00;4.2592592592592595
2018-12-06 21:00:00;5.0
2018-12-06 22:00:00;6.345454545454546
2018-12-06 23:00:00;9.25925925925926
2018-12-07 00:00:00;10.454545454545455
2018-12-07 01:00:00;9.909090909090908
2018-12-07 02:00:00;9.018518518518519
2018-12-07 03:00:00;6.7272727272727275
2018-12-07 04:00:00;4.833333333333333
2018-12-07 05:00:00;4.290909090909091
2018-12-07 06:00:00;3.2222222222222223
2018-12-07 07:00:00;2.4909090909090907
2018-12-07 08:00:00;2.3454545454545452
2018-12-07 09:00:00;2.4814814814814814
2018-12-07 10:00:00;5.518518518518518
2018-12-07 11:00:00;6.654545454545454
2018-12-07 12:00:00;6.2075471698113205
2018-12-07 13:00:00;4.527272727272727
2018-12-07 14:00:00;2.685185185185185
2018-12-07 15:00:00;4.722222222222222
2018-12-07 16:00:00;8.654545454545454
2018-12-07 17:00:00;8.962962962962964
2018-12-07 18:00:00;8.018518518518519
2018-12-07 19:00:00;6.454545454545454
2018-12-07 20:00:00;6.833333333333333
2018-12-07 21:00:00;9.745454545454546
2018-12-07 22:00:00;10.418181818181818
2018-12-07 23:00:00;9.055555555555555
2018-12-08 00:00:00;9.236363636363636
2018-12-08 01:00:00;9.436363636363636
2018-12-08 02:00:00;11.11111111111111
2018-12-08 03:00:00;12.290909090909091
2018-12-08 04:00:00;13.563636363636364
2018-12-08 05:00:00;12.666666666666666
2018-12-08 06:00:00;12.436363636363636
2018-12-08 07:00:00;12.090909090909092
2018-12-08 08:00:00;12.518518518518519
2018-12-08 09:00:00;12.927272727272728
2018-12-08 10:00:00;13.054545454545455
2018-12-08 11:00:00;13.037037037037036
2018-12-08 12:00:00;14.163636363636364
2018-12-08 13:00:00;16.418181818181818
2018-12-08 14:00:00;17.27777777777778
2018-12-08 15:00:00;12.709090909090909
2018-12-08 16:00:00;7.181818181818182
2018-12-08 17:00:00;5.814814814814815
2018-12-08 18:00:00;3.3454545454545452
2018-12-08 19:00:00;2.8727272727272726
2018-12-08 20:00:00;3.4814814814814814
2018-12-08 21:00:00;10.763636363636364
2018-12-08 22:00:00;19.21818181818182
2018-12-08 23:00:00;18.685185185185187
2018-12-09 00:00:00;16.836363636363636
2018-12-09 01:00:00;13.436363636363636
2018-12-09 02:00:00;13.666666666666666
2018-12-09 03:00:00;17.181818181818183
2018-12-09 04:00:00;20.672727272727272
2018-12-09 05:00:00;23.036363636363635
2018-12-09 06:00:00;23.0
2018-12-09 07:00:00;23.181818181818183
2018-12-09 08:00:00;23.963636363636365
2018-12-09 09:00:00;18.462962962962962
2018-12-09 10:00:00;17.2
2018-12-09 11:00:00;17.0
2018-12-09 12:00:00;15.222222222222221
2018-12-09 13:00:00;10.854545454545455
2018-12-09 14:00:00;11.309090909090909
2018-12-09 15:00:00;11.444444444444445
2018-12-09 16:00:00;10.909090909090908
2018-12-09 17:00:00;9.563636363636364
2018-12-09 18:00:00;9.055555555555555
2018-12-09 19:00:00;6.7272727272727275
2018-12-09 20:00:00;5.381818181818182
2018-12-09 21:00:00;5.036363636363636
2018-12-09 22:00:00;5.462962962962963
2018-12-09 23:00:00;6.927272727272728
2018-12-10 00:00:00;7.872727272727273
2018-12-10 01:00:00;8.148148148148149
2018-12-10 02:00:00;8.363636363636363
2018-12-10 03:00:00;9.090909090909092
2018-12-10 04:00:00;8.862745098039216
2018-12-10 05:00:00;7.763636363636364
2018-12-10 06:00:00;6.781818181818182
2018-12-10 07:00:00;6.163636363636364
2018-12-10 08:00:00;6.277777777777778
2018-12-10 09:00:00;7.672727272727273
2018-12-10 10:00:00;9.907407407407407
2018-12-10 11:00:00;11.314814814814815
2018-12-10 12:00:00;11.036363636363637
2018-12-10 13:00:00;9.722222222222221
2018-12-10 14:00:00;7.774193548387097
2018-12-10 15:00:00;6.833333333333333
2018-12-10 16:00:00;5.636363636363637
2018-12-10 17:00:00;6.425925925925926
2018-12-10 18:00:00;7.796296296296297
2018-12-10 19:00:00;8.218181818181819
2018-12-10 20:00:00;9.218181818181819
2018-12-10 21:00:00;10.962962962962964
2018-12-10 22:00:00;11.690909090909091
2018-12-10 23:00:00;12.148148148148149
2018-12-11 00:00:00;11.5
2018-12-11 01:00:00;11.26923076923077
2018-12-11 02:00:00;11.851851851851851
2018-12-11 03:00:00;12.145454545454545
2018-12-11 04:00:00;11.254545454545454
2018-12-11 05:00:00;11.854545454545455
2018-12-11 06:00:00;11.5
2018-12-11 07:00:00;14.818181818181818
2018-12-11 08:00:00;18.925925925925927
2018-12-11 09:00:00;16.036363636363635
2018-12-11 10:00:00;17.5
2018-12-11 11:00:00;21.75925925925926
2018-12-11 12:00:00;26.037037037037038
2018-12-11 13:00:00;25.90909090909091
2018-12-11 14:00:00;23.436363636363637
2018-12-11 15:00:00;23.0
2018-12-11 16:00:00;14.10909090909091
2018-12-11 17:00:00;16.35185185185185
2018-12-11 18:00:00;23.2
2018-12-11 19:00:00;25.963636363636365
2018-12-11 20:00:00;25.563636363636363
2018-12-11 21:00:00;26.037037037037038
2018-12-11 22:00:00;25.963636363636365
2018-12-11 23:00:00;31.963636363636365
2018-12-12 00:00:00;27.425925925925927
2018-12-12 01:00:00;30.462962962962962
2018-12-12 02:00:00;32.36363636363637
2018-12-12 03:00:00;63.31481481481482
2018-12-12 04:00:00;79.10909090909091
2018-12-12 05:00:00;46.6
2018-12-12 06:00:00;30.69090909090909
2018-12-12 07:00:00;30.685185185185187
2018-12-12 08:00:00;29.90909090909091
2018-12-12 09:00:00;32.2962962962963
2018-12-12 10:00:00;31.685185185185187
2018-12-12 11:00:00;32.054545454545455
2018-12-12 12:00:00;29.925925925925927
2018-12-12 13:00:00;26.945454545454545
2018-12-12 14:00:00;20.87037037037037
2018-12-12 15:00:00;17.925925925925927
2018-12-12 16:00:00;23.436363636363637
2018-12-12 17:00:00;28.77777777777778
2018-12-12 18:00:00;34.054545454545455
2018-12-12 19:00:00;37.94444444444444
2018-12-12 20:00:00;37.38181818181818
2018-12-12 21:00:00;38.03703703703704
2018-12-12 22:00:00;37.527272727272724
2018-12-12 23:00:00;31.30909090909091
2018-12-13 00:00:00;31.833333333333332
2018-12-13 01:00:00;31.072727272727274
2018-12-13 02:00:00;35.763636363636365
2018-12-13 03:00:00;32.851851851851855
2018-12-13 04:00:00;35.127272727272725
2018-12-13 05:00:00;33.29090909090909
2018-12-13 06:00:00;28.72222222222222
2018-12-13 07:00:00;26.072727272727274
2018-12-13 08:00:00;22.054545454545455
2018-12-13 09:00:00;23.462962962962962
2018-12-13 10:00:00;21.418181818181818
2018-12-13 11:00:00;20.945454545454545
2018-12-13 12:00:00;18.703703703703702
2018-12-13 13:00:00;16.537037037037038
2018-12-13 14:00:00;13.363636363636363
2018-12-13 15:00:00;11.87037037037037
2018-12-13 16:00:00;15.074074074074074
2018-12-13 17:00:00;16.21818181818182
2018-12-13 18:00:00;17.98148148148148
2018-12-13 19:00:00;20.48148148148148
2018-12-13 20:00:00;22.636363636363637
2018-12-13 21:00:00;25.163636363636364
2018-12-13 22:00:00;26.037037037037038
2018-12-13 23:00:00;29.345454545454544
2018-12-14 00:00:00;30.30909090909091
2018-12-14 01:00:00;30.24074074074074
2018-12-14 02:00:00;32.21818181818182
2018-12-14 03:00:00;30.618181818181817
2018-12-14 04:00:00;31.64814814814815
2018-12-14 05:00:00;29.272727272727273
2018-12-14 06:00:00;30.8
2018-12-14 07:00:00;32.092592592592595
2018-12-14 08:00:00;34.054545454545455
2018-12-14 09:00:00;36.56363636363636
2018-12-14 10:00:00;39.888888888888886
2018-12-14 11:00:00;36.81818181818182
2018-12-14 12:00:00;29.636363636363637
2018-12-14 13:00:00;19.51851851851852
2018-12-14 14:00:00;17.836363636363636
2018-12-14 15:00:00;18.10909090909091
2018-12-14 16:00:00;20.24074074074074
2018-12-14 17:00:00;23.945454545454545
2018-12-14 18:00:00;27.8
2018-12-14 19:00:00;27.5